Estación de Monte Patria - Chilecito
Ultimos registro cada 15 minutos 26
| N° | Estación | Fecha / Hora | Temperatura | Humedad | Lluvia | Velocidad | Dirección | Radiación | Presion |
| 26 | Monte Patria - Chilecito | 07-05-2026 06:15 | 12,4 | 93,9 | 0 | 0 | 310 | 0,6 | 942,5 |
| 25 | Monte Patria - Chilecito | 07-05-2026 06:00 | 12,7 | 93,9 | 0 | 0 | 310 | 0,6 | 942,5 |
| 24 | Monte Patria - Chilecito | 07-05-2026 05:45 | 12,7 | 94 | 0 | 0 | 310 | 0,6 | 942,3 |
| 23 | Monte Patria - Chilecito | 07-05-2026 05:30 | 12,7 | 94 | 0 | 0 | 310 | 0,6 | 942,2 |
| 22 | Monte Patria - Chilecito | 07-05-2026 05:15 | 12,8 | 94 | 0 | 0 | 310 | 0,6 | 941,9 |
| 21 | Monte Patria - Chilecito | 07-05-2026 05:00 | 12,7 | 94,1 | 0 | 0 | 310 | 0,6 | 942,2 |
| 20 | Monte Patria - Chilecito | 07-05-2026 04:45 | 12,6 | 94,1 | 0 | 0 | 310 | 0,6 | 942 |
| 19 | Monte Patria - Chilecito | 07-05-2026 04:30 | 12,6 | 94,1 | 0 | 0 | 310 | 0,6 | 941,9 |
| 18 | Monte Patria - Chilecito | 07-05-2026 04:15 | 12,5 | 94,2 | 0 | 0 | 310 | 0,6 | 941,8 |
| 17 | Monte Patria - Chilecito | 07-05-2026 04:00 | 12,1 | 93,9 | 0 | 0 | 310 | 0,6 | 941,7 |
| 16 | Monte Patria - Chilecito | 07-05-2026 03:45 | 12 | 93,6 | 0 | 0 | 310 | 0,6 | 941,6 |
| 15 | Monte Patria - Chilecito | 07-05-2026 03:30 | 12,1 | 93,4 | 0 | 0 | 310 | 0,6 | 941,5 |
| 14 | Monte Patria - Chilecito | 07-05-2026 03:15 | 12 | 93,3 | 0 | 0 | 310 | 0,6 | 941,5 |
| 13 | Monte Patria - Chilecito | 07-05-2026 03:00 | 12 | 92,8 | 0 | 0 | 310 | 0,6 | 941,7 |
| 12 | Monte Patria - Chilecito | 07-05-2026 02:45 | 12,3 | 92,7 | 0 | 0 | 310 | 0,6 | 941,8 |
| 11 | Monte Patria - Chilecito | 07-05-2026 02:30 | 12,3 | 92,4 | 0 | 0 | 310 | 0,6 | 941,8 |
| 10 | Monte Patria - Chilecito | 07-05-2026 02:15 | 12,6 | 91,8 | 0 | 0 | 310 | 0,6 | 941,7 |
| 9 | Monte Patria - Chilecito | 07-05-2026 02:00 | 12,7 | 91,7 | 0 | 0 | 310 | 0,6 | 941,8 |
| 8 | Monte Patria - Chilecito | 07-05-2026 01:45 | 12,9 | 91,5 | 0 | 0 | 310 | 0,6 | 941,7 |
| 7 | Monte Patria - Chilecito | 07-05-2026 01:30 | 12,9 | 91,4 | 0 | 0 | 310 | 0,6 | 941,8 |
| 6 | Monte Patria - Chilecito | 07-05-2026 01:15 | 13 | 91,2 | 0 | 0 | 310 | 0,6 | 941,9 |
| 5 | Monte Patria - Chilecito | 07-05-2026 01:00 | 13,1 | 90,9 | 0 | 0 | 310 | 0,6 | 941,9 |
| 4 | Monte Patria - Chilecito | 07-05-2026 00:45 | 13,1 | 90,7 | 0 | 0 | 309 | 0,6 | 941,8 |
| 3 | Monte Patria - Chilecito | 07-05-2026 00:30 | 13 | 90,2 | 0 | 0 | 309 | 0,6 | 941,6 |
| 2 | Monte Patria - Chilecito | 07-05-2026 00:15 | 13 | 89,7 | 0 | 0 | 309 | 0,6 | 941,6 |
| 1 | Monte Patria - Chilecito | 07-05-2026 00:00 | 13,2 | 88,3 | 0 | 0 | 309 | 0,6 | 941,5 |